Location: Ay?beleni
(36.6500°N, 30.3000°E)
Time: 01:29:17
(UTC+00:00)

Cosmos 1605 Rocket - Pass Details

Date: 16 October 2021
Orbit: 945 x 1006 km, 82.9° (Epoch: 04 December)

Event Time Altitude Azimuth Distance (km) Brightness Sun altitude
Rises 17:01:18 0° 175° (S) 3,627 6.9 -20.9°
Reaches altitude 10° 17:03:48 10° 172° (S) 2,693 6.2 -21.4°
Maximum altitude 17:09:52 63° 93° (E) 1,082 3.9 -22.6°
Drops below altitude 10° 17:16:05 10° 13° (NNE) 2,751 6.3 -23.8°
Sets 17:18:39 0° 11° (N) 3,712 7.0 -24.3°
